Location: Newark
(25.6108°S, 54.5803°W)
Time: 17:24:42
(UTC+00:00)

Courier 1B Rocket - Pass Details

Date: 05 November 2020
Orbit: 920 x 1202 km, 28.2° (Epoch: 22 November)

Event Time Altitude Azimuth Distance (km) Brightness Sun altitude
Rises 07:01:28 0° 284° (WNW) 4,098 - -22.4°
Reaches altitude 10° 07:04:21 10° 283° (WNW) 3,130 - -21.8°
Exits shadow 07:08:16 33° 282° (WNW) 1,885 6.0 -21.1°
Maximum altitude 07:12:13 89° 195° (SSW) 1,176 5.3 -20.3°
Drops below altitude 10° 07:19:44 10° 103° (ESE) 3,000 8.7 -18.8°
Sets 07:22:26 0° 102° (ESE) 3,921 9.6 -18.3°
